Location: Esp�n
(42.4593°N, 0.2047°W)
Time: 03:58:55
(UTC+00:00)

STARLINK-1049 - Pass Details

Date: 07 June 2020
Orbit: 549 x 550 km, 53.0° (Epoch: 04 July)

Event Time Altitude Azimuth Distance (km) Brightness Sun altitude
Exits shadow 02:14:05 26° 161° (SSE) 1,088 4.8 -17.8°
Drops below altitude 10° 02:18:46 10° 71° (ENE) 1,821 7.0 -17.3°
Enters shadow 03:14:14 -72° 235° (SW) 12,702 10.4 -10.8°
Maximum altitude 03:54:33 48° 330° (NNW) 725 4.3 -5.3°
